Weather History for Beckley, WV

Change the Weather History Date:

Wednesday, April 9, 2014

  Actual Average Record
Temperature  
Mean Temperature 46 °F 50 °F  
Max Temperature 56 °F 61 °F 80 °F (2001)
Min Temperature 35 °F 40 °F 15 °F (1972)
Degree Days  
Heating Degree Days 19 15  
Month to date heating degree days 112 147  
Since 1 July heating degree days 5138 4860  
Cooling Degree Days 0 0  
Month to date cooling degree days 0 0  
Year to date cooling degree days 0 1  
Moisture  
Dew Point 32 °F    
Average Humidity 56    
Maximum Humidity 76    
Minimum Humidity 35    
Precipitation  
Precipitation 0.01 in 0.11 in 1.04 in (1916)
Month to date precipitation 1.31 0.96  
Year to date precipitation 8.88 10.10  
Snow  
Snow 0.00 in - - ()
Month to date snowfall 0.0  
Since 1 September snowfall 75.7  
Snow Depth 0.00 in    
Sea Level Pressure  
Sea Level Pressure 29.94 in    
Wind  
Wind Speed 7 mph (NW)    
Max Wind Speed 22 mph    
Max Gust Speed 28 mph    
Visibility 10 miles    
Events Rain    
T = Trace of Precipitation, MM = Missing Value Source: NWS Daily Summary

Daily Weather History Graph

Daily Weather History Graph

Search for Another Location

Airport:

Trip Planner

Search our weather history database for the weather conditions in past years. The results will help you decide how hot, cold, wet, or windy it might be!

Date:

Astronomy

Apr. 09, 2014 Rise Set
Actual Time 6:57 AM EDT 7:54 PM EDT
Civil Twilight 6:31 AM EDT 8:21 PM EDT
Nautical Twilight 5:59 AM EDT 8:53 PM EDT
Astronomical Twilight 5:26 AM EDT 9:26 PM EDT
Moon 2:46 PM EDT (4/9) 3:40 AM EDT (4/9)
Length of Visible Light 13h 50m
Length of Day
12h 56m
Waxing Gibbous, 71% of the Moon is Illuminated
Apr 9
Waxing Gibbous
Apr 15
Full
Apr 22
Last Quarter
Apr 29
New
May 6
First Quarter

Hourly Weather History & Observations

Time (EDT) Temp. Windchill Dew Point Humidity Pressure Visibility Wind Dir Wind Speed Gust Speed Precip Events Conditions
12:51 AM 42.1 °F 40.2 °F 30.9 °F 65% 29.78 in 10.0 mi WNW 3.5 mph - N/A   Clear
1:51 AM 39.0 °F - 30.0 °F 70% 29.78 in 10.0 mi Calm Calm - N/A   Clear
2:51 AM 37.0 °F 33.3 °F 30.0 °F 76% 29.78 in 10.0 mi WSW 4.6 mph - N/A   Clear
3:51 AM 36.0 °F - 28.9 °F 76% 29.78 in 10.0 mi Calm Calm - N/A   Clear
4:51 AM 39.0 °F 35.7 °F 30.0 °F 70% 29.79 in 10.0 mi West 4.6 mph - N/A   Clear
5:51 AM 35.1 °F 32.2 °F 28.9 °F 78% 29.82 in 10.0 mi WSW 3.5 mph - N/A   Clear
6:51 AM 37.0 °F 34.5 °F 30.0 °F 76% 29.85 in 10.0 mi SW 3.5 mph - N/A   Scattered Clouds
7:51 AM 41.0 °F 37.1 °F 30.9 °F 67% 29.88 in 10.0 mi WSW 5.8 mph - N/A   Overcast
8:51 AM 44.1 °F 40.8 °F 33.1 °F 65% 29.90 in 10.0 mi NW 5.8 mph - N/A   Mostly Cloudy
9:29 AM 44.1 °F 40.8 °F 35.1 °F 71% 29.91 in 10.0 mi WNW 5.8 mph - N/A   Overcast
9:51 AM 44.1 °F 39.5 °F 36.0 °F 73% 29.94 in 10.0 mi NNW 8.1 mph - 0.00 in Rain Light Rain
10:36 AM 44.1 °F 39.5 °F 37.9 °F 79% 29.94 in 8.0 mi North 8.1 mph - 0.00 in   Overcast
10:41 AM 43.0 °F 38.8 °F 37.9 °F 82% 29.94 in 7.0 mi NNE 6.9 mph - 0.00 in   Overcast
10:51 AM 44.1 °F 40.8 °F 37.9 °F 79% 29.96 in 8.0 mi North 5.8 mph - 0.00 in   Overcast
11:18 AM 44.1 °F 41.5 °F 37.9 °F 79% 29.96 in 10.0 mi NNW 4.6 mph - N/A   Overcast
11:41 AM 46.9 °F - 37.9 °F 71% 29.96 in 10.0 mi NW 5.8 mph - N/A   Overcast
11:51 AM 46.9 °F - 37.9 °F 71% 29.98 in 10.0 mi NNW 6.9 mph - N/A   Overcast
12:33 PM 48.9 °F - 36.0 °F 61% 29.96 in 10.0 mi Variable 6.9 mph - N/A   Mostly Cloudy
12:51 PM 48.9 °F - 35.1 °F 59% 29.98 in 10.0 mi NW 10.4 mph - N/A   Overcast
1:09 PM 52.0 °F - 36.0 °F 54% 29.96 in 10.0 mi NW 15.0 mph - N/A   Overcast
1:51 PM 52.0 °F - 36.0 °F 54% 29.98 in 10.0 mi NW 8.1 mph - 0.00 in   Mostly Cloudy
2:51 PM 50.0 °F - 37.0 °F 61% 29.99 in 10.0 mi NW 9.2 mph 19.6 mph 0.01 in   Mostly Cloudy
3:31 PM 51.1 °F - 30.9 °F 46% 29.97 in 10.0 mi West 15.0 mph 27.6 mph 0.00 in   Overcast
3:51 PM 55.0 °F - 32.0 °F 42% 29.98 in 10.0 mi WNW 10.4 mph 17.3 mph 0.00 in   Mostly Cloudy
4:51 PM 53.1 °F - 30.9 °F 43% 29.99 in 10.0 mi NW 18.4 mph 23.0 mph N/A   Mostly Cloudy
5:51 PM 53.6 °F - 30.2 °F 41% 29.98 in 10.0 mi NW 10.4 mph 20.7 mph N/A   Mostly Cloudy
6:51 PM 53.1 °F - 27.0 °F 37% 30.02 in 10.0 mi NW 12.7 mph 20.7 mph N/A   Overcast
7:51 PM 51.1 °F - 27.0 °F 39% 30.04 in 10.0 mi WNW 13.8 mph - N/A   Mostly Cloudy
8:51 PM 48.9 °F - 27.0 °F 43% 30.06 in 10.0 mi NW 6.9 mph - N/A   Scattered Clouds
9:51 PM 46.9 °F - 27.0 °F 46% 30.11 in 10.0 mi NW 5.8 mph - N/A   Clear
10:51 PM 46.0 °F 43.1 °F 27.0 °F 47% 30.12 in 10.0 mi NW 5.8 mph - N/A   Clear
11:51 PM 41.0 °F - 27.0 °F 57% 30.14 in 10.0 mi Calm Calm - N/A   Clear